Location: Ladrillo (historical)
(32.8195°N, 117.2231°W)
Time: 16:53:35
(UTC+00:00)

A-11 Canister half - Visible Passes

Search period start: 26 February 2021 00:00
Search period end: 08 March 2021 00:00
Orbit: 1516 x 1684 km, 47.2° (Epoch: 26 February)

Date Brightness Start Highest point End Pass type
(mag) Time Alt. Az. Time Alt. Az. Time Alt. Az.
26 Feb 10.1 03:08:12 10° WNW 03:16:47 39° SW 03:25:08 10° SSE visible
27 Feb 10.1 02:45:09 10° WNW 02:53:56 42° SW 03:02:28 10° SSE visible
28 Feb 10.1 02:22:07 10° WNW 02:31:05 45° SW 02:39:46 10° SSE visible
01 Mar 10.0 01:59:06 10° WNW 02:08:13 49° SW 02:17:03 10° SSE visible
03 Mar 11.6 03:24:11 10° WSW 03:25:52 11° WSW 03:27:33 10° SW visible
04 Mar 11.5 02:59:46 10° W 03:03:03 12° WSW 03:06:19 10° SW visible
05 Mar 11.4 02:35:57 10° W 02:40:14 14° WSW 02:44:30 10° SSW visible
05 Mar 11.7 13:40:53 10° SSE 13:45:07 13° ESE 13:49:21 10° E visible
06 Mar 11.4 02:12:21 10° W 02:17:25 16° WSW 02:22:26 10° SSW visible
06 Mar 11.7 13:19:10 10° SE 13:22:16 12° ESE 13:25:23 10° ESE visible
07 Mar 11.8 12:58:29 10° SE 12:59:25 10° ESE 13:00:23 10° ESE visible
